Вернуться в каталог

STARLINK-6267

АктивенСвязьVLEO
NORAD 56400·PAYLOAD·🇺🇸 United States

Запущен May 4, 2023 с Cape Canaveral Space Force Station

Loading…

Ближайшие Пролёты (ближайшие 24 часа)

TLE

СвежийSource: CelesTrak SupGP

Эпоха: Sep 14, 2026, 22:16 UTC

1 56400C 23061AC  26257.92826389 -.00016971  00000+0 -61470-3 0  2579
2 56400  43.0012 198.2466 0001573 261.6021 223.0020 15.27586737    18

Отслеживайте STARLINK-6267 в реальном времени с AllMySat

Download on the App Store